Погода в Лагани

Погода в Лагани : погода сейчас, прогноз погоды и архив. Всё, что Вы хотите узнать о погоде в Лагани!

Поиск расширенной информации на нашем сайте:

Другие новости

Новости СМИ2

Главная страница сайта

Новости сайта

02.10.2013

Напоминаем, что на нашем новом сайте вы можете получить высокодетализированные прогнозы погоды по пунктам России, СНГ и мира (включающие важные для авиации метеовеличины, такие как направление и скорость ветра, видимость, явления погоды, количество и форма облачности, нижняя и верхняя граница облачности), а также ознакомиться с разнообразными материалами по авиационной метеорологии и подборкой полезных ссылок на эту тему.

Сайт Метеоцентр.Азия посвящён разработке технологий оптимизации авиаметеорологического обслуживания, включая проектирование и перспективное создание нескольких автоматизированных авиаметеорологических систем:
- система выпуска высокодетальных прогностических карт явлений погоды для нижнего воздушного пространства по России и ближнему зарубежью;
- система верификации прогнозов TAF (выпускаемых синоптиками официальных АМСГ РФ и ближнего зарубежья) и AUTOTAF (выпускаемых сайтом Метеоцентр.Азия) - выявление ошибок, онлайн-сопоставление с фактической погодой METAR, автоматическое внесение коррективов в прогнозы при резком отклонении фактической погоды от прогноза, подсчёт оправдываемости прогнозов по элементам и в целом;
- система обработки, анализа и отображения авиаметеорологической информации для применения провайдерами метеорологической информации.

Рекомендуем: Описание серия 1.435.9-17 тут.

Погода в Лагани - сегодня

Время (UTC), дата Ветер
(°,м/с) 
Видим.   Явления Облачность Т
(°С)
Тd
(°С)
f(%) Тe
(°С)
Pmin
(гПа)
dP
(гПа)
Po
(мм)
O2
(г/м3)
Тmin Tmax R s Состояние
почвы
09 25.06.17 210 (ЮЗ) 20000 м  гроза без осадков{ливн. осадки}  10/8 600 м кучево-дожд., средняя 
[Cb cap|As op]
+22.5 +18.6 79 +38  1011.9  0.5  761  279           
12 25.06.17 060 (СВ) 3{11}  10 км  {гроза, ливн. осадки}  10/5 600 м кучево-дожд., средняя 
[Cb cap|As op]
+19 +16.3 84 +31  1012.9  1.1  762  283           
15 25.06.17 340 (С) 20000 м  {ливн. осадки}  8/3 600 м кучево-дожд., средняя, верхняя 
[Cb calv|Ac cuf|Ci fib]
+19.4 +15.4 78 +29  1014.5  1.5  763  284    +22.9  13     
18 25.06.17 340 (С) 10 км  {ливн. осадки}  ясно 
+16.1 +13.7 86 +23  1016.7  2.2  764  288           
21 25.06.17 290 (З) 10 км    ясно 
+13.9 +11.9 88 +17  1017.6  0.9  765  291           
00 26.06.17 280 (З) 10 км    ясно 
+12.7 +11 89 +15  1018.1  0.6  766  293           
03 26.06.17 270 (З) 10 км    ясно 
+17.1 +12.1 72 +22  1018.6  0.5  766  288  +12.6        мокрая 
06 26.06.17 040 (СВ) 20000 м    ясно 
+25.4 +8.1 33 +25  1019.1  0.5  766  281           
09 26.06.17 100 (В) 20000 м    ясно 
+26.3 +7.8 31 +26  1018.9  -0.3  766  280           
12 26.06.17 130 (ЮВ) 20000 м    3/0 средняя 
[Ac trans]
+26.4 +6.4 28 +26  1018.3  -0.6  766  280           
15 26.06.17 140 (ЮВ) 20000 м    ясно 
+24.5 +10.1 40 +25  1018.2  -0.1  766  281    +26.9       
18 26.06.17 160 (Ю) 20000 м    ясно 
+17.7 +13.6 77 +25  1018.5  0.3  766  287           
21 26.06.17 130 (ЮВ) 10 км    ясно 
+17.1 +13.7 80 +25  1017.5  -1  765  287           
00 27.06.17 090 (В) 10 км    ясно 
+17.9 +15 83 +27  1016.2  -1.3  764  286           
03 27.06.17 070 (В) 20000 м    ясно 
+21.4 +16.9 76 +33  1016.8  0.6  765  282  +15.6        влажная 
06 27.06.17 090 (В) 6-10{10}  20000 м    ясно 
+25.3 +16.6 59 +36  1016.3  -0.5  764  278           
09 27.06.17 100 (В) 8-12{12}  20000 м    ясно 
+26.8 +15.2 49 +35  1015  -1.4  763  277           
12 27.06.17 110 (В) 7-10{12}  20000 м    ясно 
+26.6 +16.6 54 +38  1013.6  -1.3  762  276           
15 27.06.17 090 (В) 5{10}  20000 м    ясно 
+25.4 +16.7 59 +37  1013  -0.7  762  277    +27.5       
18 27.06.17 060 (СВ) 20000 м    ясно 
+21.8 +17.2 75 +34  1013.5  0.6  762  281           
21 27.06.17 020 (С) 10 км    ясно 
+19.3 +17.2 88 +33  1012.8  -0.7  762  283           
00 28.06.17 050 (СВ) 10 км    4/0 средняя 
[Ac trans]
+20.4 +19.1 92 +37  1011.7  -1.1  761  281           
03 28.06.17 050 (СВ) 10 км    8/3 600 м кучево-дожд., средняя 
[Cb cap|Ac cuf]
+22.4 +20.4 88 +41  1012.1  0.4  761  278  +19.1        влажная 
06 28.06.17 110 (В) 20000 м    6/0 средняя 
[Ac cuf]
+27.9 +15.7 47 +37  1011.6  -0.6  761  275           
09 28.06.17 050 (СВ) 20000 м    4/0 средняя, верхняя 
[Ac cast|Ci fib]
+32.1 +13 31 +37  1010.9  -0.7  760  272           
Время (UTC), дата Ветер
(°,м/с) 
Видим.   Явления Облачность Т
(°С)
Тd
(°С)
f(%) Тe
(°С)
Pmin
(гПа)
dP
(гПа)
Po
(мм)
O2
(г/м3)
Тmin Tmax R s Состояние
почвы

Для получения пояснительной информации подведите курсор к названию столбца.

ПОГОДА в Лагани - архив

Всё, что Вы хотите узнать о погоде в Лагани - удобно и подробно!

Выберите нужную дату (начиная с 1 января 2015* года) и нажмите кнопку "Найти".
Будут отображены архивные сводки погоды по пункту Лагань, начиная с указанной даты.


Отображать данные в формате CSV (для использования в таблицах Excel)


Внимание! Наш архив погоды предназначен исключительно для личного некоммерческого использования в познавательных целях. Если Вам необходимы официальные справки о состоянии погоды (для производственных, юридических, коммерческих и т.п. целей), обращайтесь в органы Росгидромета.

*Примечание: данная дата относится к архиву по метеостанциям СССР (Россия, СНГ, Балтия).
Архив по метеостанциям Зарубежной Европы и Азии (кроме Китая) хранится 10 дней, по другим регионам земного шара (Китай, Африка, Америка, Австралия, Океания) - 1 день.

Лагань - район местоположения метеостанции


Название, широта, долгота, высота метеостанции:
Лагань 45.4°ш. 47.3°д. -24 м над ур. моря [Российская Федерация]

Дополнительная информация

В oтличие oт бoльшинства пoгoдных сайтoв мы публикуем пoдрoбную метеoинфoрмацию в детальнoм прoфессиoнальнoм фoрмате.

Характеристики температуры и влажнoсти вoздуха измеряются на высoте 2 м в тени вдали oт зданий и деревьев.
Скoрoсть ветра измеряется на высoте 10 м (на урoвне рoста челoвека скoрoсть ветра ниже в 1.5-2 раза). Если метеoстанция нахoдится в гoрoде или в лесу, тo скoрoсть ветра занижена на 2-4 м/с пo сравнению с oткрытым местoм. Скoрoсть ветра над акватoриями крупных рек и oзёр, а также на вершинах хoлмoв на 2-5 м/с выше, чем в oбычных услoвиях.
Атмoсфернoе давление в разных тoчках местнoсти мoжет значительнo oтличаться oт давления на метеoстанции, в зависимoсти oт услoвий рельефа (при пoдъёме на 10 м давление пoнижается примернo на 1 мм рт.ст.).